• MPC Preparation (Info)

  • MPEC 2019-G38 : 2019 GM

    The following Minor Planet Electronic Circular may be linked-to from your own Web pages, but must not otherwise be redistributed electronically.

    A form allowing access to any MPEC is at the bottom of this page.


    Read MPEC 2019-G37 Read MPEC 2019-G39


    M.P.E.C. 2019-G38                                Issued 2019 Apr. 5, 02:54 UT
    
         The Minor Planet Electronic Circulars contain information on unusual
             minor planets and routine data on comets.  They are published
        on behalf of Division F of the International Astronomical Union by the
              Minor Planet Center, Smithsonian Astrophysical Observatory,
                              Cambridge, MA 02138, U.S.A.
    
                 Prepared using the Tamkin Foundation Computer Network
    
                                  MPC@CFA.HARVARD.EDU
                URL https://www.minorplanetcenter.net/    ISSN 1523-6714
    
                                        2019 GM
    
    Observations:
         K19G00M* C2019 04 02.39525 13 03 43.293+01 49 34.18         21.1 wUEG038F51
         K19G00M  C2019 04 02.40694 13 03 46.078+01 49 38.43         21.3 wUEG038F51
         K19G00M  C2019 04 02.41870 13 03 48.862+01 49 42.56         21.1 wUEG038F51
         K19G00M KC2019 04 03.20825113 07 25.61 +01 54 13.5          20.9 VuEG038H21
         K19G00M KC2019 04 03.21434713 07 27.23 +01 54 15.3          21.1 VuEG038H21
         K19G00M KC2019 04 03.22105413 07 28.95 +01 54 18.1          20.9 VuEG038H21
         K19G00M  C2019 04 03.27299 13 07 44.18 +01 54 44.1          21.6 GVEG038I52
         K19G00M  C2019 04 03.27632 13 07 45.05 +01 54 45.9          20.4 GVEG038I52
         K19G00M  C2019 04 03.27798 13 07 45.53 +01 54 45.6          21.1 GVEG038I52
         K19G00M ^C2019 04 03.55033613 09 00.658+01 56 43.60         20.59GVEG038568
         K19G00M ^C2019 04 03.55129013 09 00.916+01 56 43.99         20.42GVEG038568
         K19G00M ^C2019 04 03.55224613 09 01.180+01 56 44.34         20.76GVEG038568
         K19G00M  C2019 04 04.43814 13 13 36.598+02 02 28.12         21.2 wUEG038F51
         K19G00M  C2019 04 04.44936 13 13 39.885+02 02 32.49         20.9 wUEG038F51
         K19G00M  C2019 04 04.46062 13 13 43.152+02 02 36.86         21.0 wUEG038F51
    
    Observer details:
    568 Mauna Kea.  Observers R. Wainscoat, C. Wipper, A. Petric.  Measurers
        R. Weryk, R. Wainscoat.  3.6-m Canada-France-Hawaii Telescope + CCD.
    F51 Pan-STARRS 1, Haleakala.  Observers J. Bulger, T. Lowe, A. Schultz,
        M. Willman.  Measurers K. Chambers, S. Chastel, T. de Boer, L. Denneau,
        J. Fairlamb, H. Flewelling, M. Huber, C.-C. Lin, E. Magnier,
        Y. Ramanjooloo, R. Wainscoat, R. Weryk.  1.8-m Ritchey-Chretien + CCD.
    H21 Astronomical Research Observatory, Westfield.  Observer R. Holmes.
        Measurers S. Foglia, L. Buzzi, T. Linder, R. Holmes.  0.81-m f/4.0
        astrograph + CCD.
    I52 Steward Observatory, Mt. Lemmon Station.  Observer G. J. Leonard.
        Measurers B. M. Africano, E. J. Christensen, G. A. Farneth, D. C. Fuls,
        A. R. Gibbs, A. D. Grauer, H. Groeller, R. A. Kowalski, S. M. Larson,
        G. J. Leonard, T. A. Pruyne, R. L. Seaman, F. C. Shelly.  1.0-m reflector
        + CCD.
    
    Orbital elements:
    2019 GM                                                  Earth MOID = 0.0236 AU
    Epoch 2019 Apr. 27.0 TT = JDT 2458600.5                 MPC
    M 355.80559              (2000.0)            P               Q
    n   0.25658311     Peri.   85.93435     -0.50506387     +0.86300939
    a   2.4527353      Node   153.72069     -0.80155487     -0.46421087
    e   0.5960519      Incl.    1.44862     -0.32003167     -0.19930646
    P   3.84           H   24.7           G   0.15           U   7
    Residuals in seconds of arc
    190402 F51  0.0   0.1+    190403 H21  0.5-  0.2+    190403 568  0.0   0.0
    190402 F51  0.1+  0.1+    190403 I52  0.0   0.5-    190403 568  0.1+  0.0
    190402 F51  0.1-  0.1-    190403 I52  0.1-  0.0     190404 F51  0.1-  0.1+
    190403 H21  0.2-  0.4+    190403 I52  0.6+  0.9-    190404 F51  0.2+  0.0
    190403 H21  0.1+  0.1-    190403 568  0.0   0.0     190404 F51  0.1-  0.1-
    
    Ephemeris:
    2019 GM                  a,e,i = 2.45, 0.60, 1                   q = 0.9908
    Date    TT    R. A. (2000) Decl.     Delta      r     Elong.  Phase     V
    2019 03 06    12 11 07.1 +00 26 12   0.3373  1.3174   162.4    13.1    23.7
    ...
    2019 03 21    12 29 35.1 +00 53 33   0.2127  1.2070   172.4     6.3    22.2
    ...
    2019 03 29    12 47 43.7 +01 25 55   0.1562  1.1536   173.4     5.7    21.4
    ...
    2019 04 04    13 11 18.3 +02 00 00   0.1182  1.1168   170.9     8.1    20.9
    2019 04 05    13 16 41.5 +02 06 38   0.1123  1.1110   170.3     8.7    20.8
    2019 04 06    13 22 39.5 +02 13 35   0.1064  1.1054   169.5     9.5    20.7
    ...
    2019 04 12    14 16 29.9 +03 01 02   0.07479 1.0735   161.8    17.0    20.1
    ...
    2019 04 20    16 57 21.9 +03 36 45   0.05016 1.0380   130.9    47.0    20.1
    ...
    2019 05 05    21 25 24.2 +00 33 41   0.09462 0.9970    80.4    94.2    22.9
    
    A. U. Tomatic                (C) Copyright 2019 MPC           M.P.E.C. 2019-G38
    

    Read MPEC 2019-G37 Read MPEC 2019-G39


    MPEC number:

    Enter an MPEC number in one of the following forms:

    • 1997-B01 (the full form)
    • J97B01 (the packed version of the full form)
    • B01 (the abbreviated form)